TimePST,TemperatureF,Dew PointF,Humidity,Sea Level PressureIn,VisibilityMPH,Wind Direction,Wind SpeedMPH,Gust SpeedMPH,PrecipitationIn,Events,Conditions,WindDirDegrees,DateUTC
12:53 AM,50.0,46.0,86,30.16,10.0,ESE,3.5,-,N/A,,Clear,120,2012-11-04 07:53:00
1:53 AM,52.0,46.9,83,30.17,10.0,ENE,4.6,-,N/A,,Clear,70,2012-11-04 08:53:00
1:53 AM,48.9,45.0,86,30.17,10.0,Calm,Calm,-,N/A,,Clear,0,2012-11-04 09:53:00
2:53 AM,50.0,46.0,86,30.17,10.0,Calm,Calm,-,N/A,,Clear,0,2012-11-04 10:53:00
3:53 AM,48.9,46.0,90,30.17,10.0,Calm,Calm,-,N/A,,Clear,0,2012-11-04 11:53:00
4:53 AM,48.0,44.1,86,30.18,10.0,East,3.5,-,N/A,,Clear,100,2012-11-04 12:53:00
5:53 AM,46.9,44.1,90,30.19,10.0,Calm,Calm,-,N/A,,Clear,0,2012-11-04 13:53:00
6:53 AM,46.9,44.1,90,30.21,10.0,ESE,3.5,-,N/A,,Clear,120,2012-11-04 14:53:00
7:53 AM,55.0,50.0,83,30.22,10.0,ESE,5.8,-,N/A,,Clear,120,2012-11-04 15:53:00
8:53 AM,60.1,52.0,75,30.23,10.0,SSE,3.5,-,N/A,,Clear,150,2012-11-04 16:53:00
9:53 AM,64.9,51.1,61,30.23,10.0,Calm,Calm,-,N/A,,Clear,0,2012-11-04 17:53:00
10:53 AM,69.1,51.1,53,30.22,10.0,Calm,Calm,-,N/A,,Clear,0,2012-11-04 18:53:00
11:53 AM,72.0,51.1,48,30.19,10.0,Variable,3.5,-,N/A,,Clear,0,2012-11-04 19:53:00
12:53 PM,75.0,50.0,41,30.17,10.0,Variable,3.5,-,N/A,,Clear,0,2012-11-04 20:53:00
1:53 PM,75.0,51.1,43,30.16,10.0,Variable,3.5,-,N/A,,Clear,0,2012-11-04 21:53:00
2:53 PM,75.9,51.1,42,30.14,10.0,Variable,3.5,-,N/A,,Clear,0,2012-11-04 22:53:00
3:53 PM,75.0,51.1,43,30.13,10.0,WSW,3.5,-,N/A,,Clear,250,2012-11-04 23:53:00
4:53 PM,70.0,52.0,53,30.14,10.0,WNW,3.5,-,N/A,,Clear,300,2012-11-05 00:53:00
5:53 PM,66.0,53.1,63,30.15,10.0,Calm,Calm,-,N/A,,Clear,0,2012-11-05 01:53:00
6:53 PM,61.0,52.0,72,30.16,10.0,Calm,Calm,-,N/A,,Clear,0,2012-11-05 02:53:00
7:53 PM,57.9,50.0,75,30.16,10.0,Calm,Calm,-,N/A,,Clear,0,2012-11-05 03:53:00
8:53 PM,57.9,48.9,72,30.17,10.0,East,4.6,-,N/A,,Clear,90,2012-11-05 04:53:00
9:53 PM,55.9,48.9,77,30.17,10.0,Calm,Calm,-,N/A,,Clear,0,2012-11-05 05:53:00
10:53 PM,53.1,48.9,86,30.19,10.0,Calm,Calm,-,N/A,,Clear,0,2012-11-05 06:53:00